CW3319 Weather Reports


Display with metric or nautical units.
time (UTC)temp
F
wind
direction
speed
MPH
gust
MPH
rain 1hr
in
rain 24hr
in
rain mn
in
humidity
%
barometer
mb
20260508043932 46 217 0.0 0.0 0.00 0.00 0.00 55 1008.4
20260508042902 46 220 0.0 0.0 0.00 0.00 0.00 53 1008.4
20260508041902 46 223 0.0 0.0 0.00 0.00 0.00 52 1008.4
20260508040902 46 227 0.0 0.0 0.00 0.00 0.00 52 1008.5
20260508035902 46 227 0.0 0.0 0.00 0.00 0.00 50 1008.5
20260508034902 46 227 0.0 0.0 0.00 0.00 0.00 48 1008.6
20260508033902 47 227 0.0 0.0 0.00 0.00 0.00 48 1008.7
20260508032903 47 227 0.0 0.0 0.00 0.00 0.00 48 1008.7
20260508031931 47 227 0.0 0.0 0.00 0.00 0.00 46 1008.7
20260508030902 47 227 0.0 0.0 0.00 0.00 0.00 45 1008.6
20260508025902 48 227 0.0 0.0 0.00 0.00 0.00 48 1008.7
20260508024902 48 227 0.0 0.0 0.00 0.00 0.00 48 1008.6
20260508023902 48 227 0.0 0.0 0.00 0.00 0.00 45 1008.6
20260508022902 49 227 0.0 0.0 0.00 0.00 0.00 45 1008.6
20260508021933 49 227 0.0 0.0 0.00 0.00 0.00 44 1008.6
20260508020902 50 227 0.0 0.0 0.00 0.00 0.00 44 1008.5
20260508015902 50 227 0.0 0.0 0.00 0.00 0.00 44 1008.5
20260508014903 50 227 0.0 0.0 0.00 0.00 0.00 43 1008.3
20260508013902 52 227 0.0 0.0 0.00 0.00 0.00 44 1008.3
20260508012932 53 236 0.0 0.0 0.00 0.00 0.00 42 1008.2
20260508011902 55 271 0.0 0.0 0.00 0.00 0.00 39 1008.2
20260508010932 55 271 0.0 0.0 0.00 0.00 0.00 37 1008.2
20260508005902 56 265 0.0 0.0 0.00 0.00 0.00 36 1008.2
20260508004902 56 272 0.0 0.0 0.00 0.00 0.00 36 1008.2
20260508003902 56 275 0.0 0.0 0.00 0.00 0.00 34 1008.2
20260508002902 56 270 0.0 1.0 0.00 0.00 0.00 36 1008.1
20260508001932 56 268 2.0 3.0 0.00 0.00 0.00 33 1008.2
20260508000902 57 274 1.0 2.0 0.00 0.00 0.00 34 1008.2
20260507235902 57 296 1.0 2.0 0.00 0.00 0.00 33 1008.3
20260507234902 56 278 0.0 1.0 0.00 0.00 0.00 34 1008.4
20260507233902 57 274 2.0 2.0 0.00 0.00 0.00 31 1008.4
20260507232932 57 248 2.0 3.0 0.00 0.00 0.00 31 1008.6
20260507231902 57 299 0.0 1.0 0.00 0.00 0.00 30 1008.6
20260507230902 57 257 2.0 3.0 0.00 0.00 0.00 31 1008.7
20260507225902 57 273 1.0 2.0 0.00 0.00 0.00 30 1008.8
20260507224902 57 238 3.0 4.0 0.00 0.00 0.00 30 1008.8
20260507223932 57 254 2.0 3.0 0.00 0.00 0.00 32 1008.9
20260507222902 57 269 1.0 2.0 0.00 0.00 0.00 31 1009.0
20260507221902 57 265 1.0 1.0 0.00 0.00 0.00 31 1008.9
20260507220902 57 264 2.0 3.0 0.00 0.00 0.00 32 1009.1
20260507215902 57 295 0.0 0.0 0.00 0.00 0.00 30 1009.2
20260507214902 57 263 2.0 3.0 0.00 0.00 0.00 32 1009.1
20260507213902 57 286 1.0 2.0 0.00 0.00 0.00 30 1009.1
20260507212902 56 255 2.0 3.0 0.00 0.00 0.00 30 1009.2
20260507211932 57 241 1.0 3.0 0.00 0.00 0.00 31 1009.4
20260507210902 56 278 2.0 3.0 0.00 0.00 0.00 33 1009.4
20260507205902 56 267 0.0 1.0 0.00 0.00 0.00 32 1009.5
20260507204902 56 226 2.0 4.0 0.00 0.00 0.00 32 1009.5
20260507203902 56 278 0.0 1.0 0.00 0.00 0.00 31 1009.7
20260507203002 56 309 3.0 6.0 0.00 0.00 0.00 31 1009.7
20260507201902 56 258 2.0 4.0 0.00 0.00 0.00 34 1009.9
20260507200903 56 221 2.0 3.0 0.00 0.00 0.00 31 1010.0
20260507195902 56 268 2.0 3.0 0.00 0.00 0.00 32 1010.2
20260507194901 57 328 3.0 5.0 0.00 0.00 0.00 31 1010.3
20260507193902 58 262 1.0 2.0 0.00 0.00 0.00 30 1010.2
20260507192902 57 41 2.0 3.0 0.00 0.00 0.00 31 1010.3
20260507191902 56 231 2.0 2.0 0.00 0.00 0.00 32 1010.5
20260507190902 56 256 1.0 3.0 0.00 0.00 0.00 33 1010.4
20260507185902 55 281 1.0 2.0 0.00 0.00 0.00 33 1010.6
20260507184902 55 269 1.0 3.0 0.00 0.00 0.00 30 1010.6
20260507183902 56 274 2.0 4.0 0.00 0.00 0.00 33 1010.4
20260507182902 55 232 2.0 3.0 0.00 0.00 0.00 34 1010.7
20260507181902 54 355 2.0 4.0 0.00 0.00 0.00 36 1010.7
20260507180902 55 291 2.0 3.0 0.00 0.00 0.00 32 1010.7
20260507175902 54 298 2.0 3.0 0.00 0.00 0.00 35 1010.7
20260507174902 54 256 2.0 3.0 0.00 0.00 0.00 34 1010.9
20260507173902 55 314 2.0 3.0 0.00 0.00 0.00 34 1011.0
20260507172902 55 301 2.0 3.0 0.00 0.00 0.00 34 1011.2
20260507171902 53 14 2.0 3.0 0.00 0.00 0.00 36 1011.2
20260507170902 52 279 1.0 2.0 0.00 0.00 0.00 37 1011.3
20260507165902 52 273 1.0 2.0 0.00 0.00 0.00 36 1011.3
20260507164902 51 276 1.0 2.0 0.00 0.00 0.00 40 1011.5
20260507164002 51 260 2.0 3.0 0.00 0.00 0.00 38 1011.5
20260507162932 51 272 2.0 3.0 0.00 0.00 0.00 38 1011.6
20260507161902 51 8 2.0 4.0 0.00 0.00 0.00 42 1011.8
20260507160901 50 335 2.0 3.0 0.00 0.00 0.00 41 1011.8
20260507155932 50 303 1.0 2.0 0.00 0.00 0.00 46 1011.8
20260507154902 49 21 2.0 3.0 0.00 0.00 0.00 47 1011.9
20260507153902 49 245 2.0 3.0 0.00 0.00 0.00 46 1011.9
20260507152932 49 261 1.0 3.0 0.00 0.00 0.00 48 1012.0
20260507151932 48 140 0.0 1.0 0.00 0.00 0.00 48 1012.0
20260507150903 48 255 1.0 1.0 0.00 0.00 0.00 48 1012.0
20260507145901 47 313 1.0 3.0 0.00 0.00 0.00 49 1012.0
20260507144902 46 324 1.0 3.0 0.00 0.00 0.00 49 1012.0
20260507143903 46 348 2.0 2.0 0.00 0.00 0.00 51 1012.1
20260507142901 45 225 0.0 0.0 0.00 0.00 0.00 49 1012.2
20260507141902 44 153 0.0 0.0 0.00 0.00 0.00 49 1012.2
20260507140903 44 314 0.0 0.0 0.00 0.00 0.00 55 1012.3
20260507135901 44 10 1.0 3.0 0.00 0.00 0.00 58 1012.4
20260507134902 43 293 0.0 0.0 0.00 0.00 0.00 61 1012.4
20260507133902 43 317 0.0 0.0 0.00 0.00 0.00 64 1012.4
20260507132903 42 248 0.0 0.0 0.00 0.00 0.00 65 1012.5
20260507131931 41 264 0.0 1.0 0.00 0.00 0.00 68 1012.4
20260507130901 41 313 0.0 1.0 0.00 0.00 0.00 70 1012.5
20260507125933 40 309 0.0 0.0 0.00 0.00 0.00 72 1012.6
20260507124902 39 287 0.0 0.0 0.00 0.00 0.00 75 1012.6
20260507123902 39 277 0.0 0.0 0.00 0.00 0.00 76 1012.7
20260507122902 38 296 0.0 0.0 0.00 0.00 0.00 77 1012.7
20260507121932 37 277 0.0 0.0 0.00 0.00 0.00 79 1012.7
20260507120932 36 312 0.0 0.0 0.00 0.00 0.00 81 1012.7
20260507115933 35 234 0.0 0.0 0.00 0.00 0.00 81 1012.6
20260507114901 35 234 0.0 0.0 0.00 0.00 0.00 81 1012.5
20260507113903 34 233 0.0 0.0 0.00 0.00 0.00 81 1012.4
20260507112902 34 234 0.0 0.0 0.00 0.00 0.00 81 1012.5
20260507111902 34 236 0.0 0.0 0.00 0.00 0.00 81 1012.5
20260507110902 34 236 0.0 0.0 0.00 0.00 0.00 81 1012.5
20260507105902 35 236 0.0 0.0 0.00 0.00 0.00 81 1012.5
20260507104902 34 236 0.0 0.0 0.00 0.00 0.00 81 1012.5
20260507103902 34 236 0.0 0.0 0.00 0.00 0.00 80 1012.5
20260507102902 34 236 0.0 0.0 0.00 0.00 0.00 80 1012.5
20260507101903 34 236 0.0 0.0 0.00 0.00 0.00 79 1012.5
20260507100932 34 236 0.0 0.0 0.00 0.00 0.00 79 1012.5
20260507095902 34 236 0.0 0.0 0.00 0.00 0.00 78 1012.5
20260507094902 34 236 0.0 0.0 0.00 0.00 0.00 78 1012.6
20260507093902 34 236 0.0 0.0 0.00 0.00 0.00 77 1012.6
20260507092902 34 236 0.0 0.0 0.00 0.00 0.00 76 1012.6
20260507091902 34 236 0.0 0.0 0.00 0.00 0.00 76 1012.6
20260507090902 34 236 0.0 0.0 0.00 0.00 0.00 76 1012.6
20260507085902 34 236 0.0 0.0 0.00 0.00 0.00 76 1012.6
20260507084902 34 236 0.0 0.0 0.00 0.00 0.00 76 1012.6
20260507083902 35 236 0.0 0.0 0.00 0.00 0.00 76 1012.7
20260507082932 35 236 0.0 0.0 0.00 0.00 0.00 76 1012.6
20260507081902 35 236 0.0 0.0 0.00 0.00 0.00 75 1012.6
20260507080902 36 236 0.0 0.0 0.00 0.00 0.00 74 1012.7
20260507075902 36 236 0.0 0.0 0.00 0.00 0.00 74 1012.6
20260507075002 36 236 0.0 0.0 0.00 0.00 0.00 73 1012.7
20260507073932 36 236 0.0 0.0 0.00 0.00 0.00 72 1012.7
20260507072932 36 236 0.0 0.0 0.00 0.00 0.00 72 1012.8
20260507071902 37 236 0.0 0.0 0.00 0.00 0.00 74 1013.0
20260507070902 37 236 0.0 0.0 0.00 0.00 0.00 71 1013.1
20260507065932 37 236 0.0 0.0 0.00 0.00 0.00 71 1013.2
20260507064902 37 236 0.0 0.0 0.00 0.00 0.00 71 1013.2
20260507063902 38 236 0.0 0.0 0.00 0.00 0.00 71 1013.2
20260507062902 38 236 0.0 0.0 0.00 0.00 0.00 71 1013.4
20260507061902 38 236 0.0 0.0 0.00 0.00 0.00 71 1013.4
20260507060932 38 236 0.0 0.0 0.00 0.00 0.00 71 1013.5
20260507055902 38 236 0.0 0.0 0.00 0.00 0.00 71 1013.5
20260507054932 38 236 0.0 0.0 0.00 0.00 0.00 71 1013.5
20260507053902 38 236 0.0 0.0 0.00 0.00 0.00 69 1013.5
20260507052932 39 236 0.0 0.0 0.00 0.00 0.00 70 1013.6
20260507052002 39 236 0.0 0.0 0.00 0.00 0.00 71 1013.6
20260507050932 39 236 0.0 0.0 0.00 0.00 0.00 72 1013.7
20260507045902 39 236 0.0 0.0 0.00 0.00 0.00 72 1013.8
20260507044902 39 236 0.0 0.0 0.00 0.00 0.00 72 1013.7